Regional Weather Roundup
Issued by NWS Sioux Falls, SD

Home | Current Version | Previous Version | Graphics & Text | Print | Product List | Glossary On
Versions: 1 2 3 4 5 6 7 8 9 10 11 12 13 14 15 16 17 18 19 20 21 22 23 24 25 26 27 28 29 30 31 32 33 34 35 36 37 38 39 40 41 42 43 44 45 46 47 48 49 50
000
ASUS43 KFSD 230702
RWRFSD

WEATHER ROUNDUP FOR SE SOUTH DAKOTA/SW MINNESOTA/NW IOWA
NATIONAL WEATHER SERVICE SIOUX FALLS SD
200 AM CDT THU OCT 23 2014

NOTE: "FAIR" INDICATES FEW OR NO CLOUDS BELOW 12,000 FEET WITH NO
SIGNIFICANT WEATHER AND OR OBSTRUCTIONS TO VISIBILITY.


SDZ038>040-050-052>070-230800-
SOUTHEAST SOUTH DAKOTA

CITY           SKY/WX    TMP DP  RH WIND       PRES   REMARKS
CHAMBERLAIN    CLEAR     42  39  88 W6        30.01R
HURON          CLEAR     45  43  93 S7        29.98S
MADISON        FOG       48  48 100 SW7       30.01S VSB<1/4
MITCHELL       CLEAR     43  43 100 S3        30.01S FOG
SIOUX FALLS    FOG       49  49 100 SW3       30.01F VSB 1/4
WINNER         FAIR      51  38  60 SW7       30.02S
YANKTON          N/A     45  43  93 CALM      30.02S VSB 1/4
$$

MNZ071-072-080-081-089-090-097-098-230800-
SOUTHWEST MINNESOTA

CITY           SKY/WX    TMP DP  RH WIND       PRES   REMARKS
FAIRMONT       CLOUDY    54  48  82 S13       30.01S
JACKSON        CLOUDY    59  55  88 SW7       30.01S
LUVERNE        FOG       54  52  94 W5        30.02S VSB 1/4
MARSHALL       PTCLDY    52  48  87 W8        29.98S
MONTEVIDEO     PTCLDY    54  52  94 W5        29.98S
PIPESTONE      CLOUDY    52  52 100 W9        30.01S FOG
REDWOOD FALLS  CLOUDY    57  55  93 SW8       29.98S
TRACY          MOCLDY    54  53  95 SW10      29.99S
WINDOM         CLOUDY    57  55  94 SW7       30.00F FOG
WORTHINGTON    CLOUDY    54  54 100 W7        30.02S
$$

IAZ001>003-012>014-020>022-031-032-NEZ013-014-SDZ071-230800-
NORTHWEST IOWA

CITY           SKY/WX    TMP DP  RH WIND       PRES   REMARKS
CHEROKEE       RAIN      58  58 100 CALM      30.01S
DENISON        CLOUDY    57  57 100 S15G24    30.00S
ESTHERVILLE    CLOUDY    55  54  96 S9        30.01F
LE MARS        CLOUDY    57  57 100 NW5       30.02S
ORANGE CITY    FOG       57  55  94 CALM      30.01F VSB 1/2
SHELDON        CLOUDY    57  57 100 W5        30.00F FOG
SIOUX CITY     CLOUDY    59  58  96 W5        30.01F FOG
SPENCER        LGT RAIN  57  56  96 SW6       30.01F FOG
STORM LAKE     DRIZZLE   57  55  94 S9G16     30.01F
$$

ABBREVIATIONS USED IN REMARKS
   TC - TEMPERATURE IN CELSIUS
  WCI - WIND CHILL INDEX
   HX - HEAT INDEX
  VSB - VISIBILITY




USA.gov is the U.S. government's official web portal to all federal, state and local government web resources and services.